Location: Cold Norton
(51.6667°N, 0.6667°E)
Time: 17:12:34
(UTC+00:00)

BREEZE-M DEB (TANK) - Pass Details

Date: 18 November 2025
Orbit: 274 x 13341 km, 49.5° (Epoch: 09 December)

Event Time Altitude Azimuth Distance (km) Brightness Sun altitude
Rises 19:02:16 0° 253° (WSW) 2,384 7.2 -27.4°
Reaches altitude 10° 19:03:36 10° 250° (WSW) 1,774 6.2 -27.6°
Enters shadow 19:07:04 70° 170° (S) 960 3.8 -28.1°
